| time (UTC) | temp C | wind direction | speed KPH | gust KPH | rain 1hr cm | rain 24hr cm | rain mn cm | humidity % | barometer mb |
| 20260507225503 | 17 | 247 | 1.6 | 4.8 | 0.00 | 0.18 | 0.18 | 42 | 1010.1 |
| 20260507225024 | 17 | 248 | 1.6 | 4.8 | 0.00 | 0.18 | 0.18 | 43 | 1010.2 |
| 20260507224503 | 17 | 250 | 1.6 | 4.8 | 0.00 | 0.18 | 0.18 | 41 | 1010.1 |
| 20260507224003 | 17 | 249 | 0.0 | 3.2 | 0.00 | 0.18 | 0.18 | 43 | 1010.1 |
| 20260507223503 | 17 | 248 | 1.6 | 4.8 | 0.00 | 0.18 | 0.18 | 41 | 1010.2 |
| 20260507223003 | 17 | 249 | 1.6 | 4.8 | 0.00 | 0.18 | 0.18 | 39 | 1009.9 |
| 20260507222503 | 18 | 250 | 0.0 | 4.8 | 0.00 | 0.18 | 0.18 | 41 | 1009.8 |
| 20260507222003 | 18 | 250 | 0.0 | 4.8 | 0.00 | 0.18 | 0.18 | 40 | 1009.9 |
| 20260507221503 | 18 | 251 | 1.6 | 6.4 | 0.00 | 0.18 | 0.18 | 43 | 1010.0 |
| 20260507221003 | 18 | 250 | 1.6 | 6.4 | 0.00 | 0.18 | 0.18 | 38 | 1010.1 |
| 20260507220503 | 20 | 245 | 3.2 | 11.3 | 0.00 | 0.18 | 0.18 | 37 | 1010.1 |
| 20260507220003 | 19 | 242 | 1.6 | 11.3 | 0.00 | 0.18 | 0.18 | 40 | 1009.9 |
| 20260507215503 | 19 | 254 | 0.0 | 4.8 | 0.00 | 0.18 | 0.18 | 41 | 1010.2 |
| 20260507215024 | 18 | 250 | 1.6 | 11.3 | 0.00 | 0.18 | 0.18 | 42 | 1010.1 |
| 20260507214503 | 20 | 248 | 1.6 | 11.3 | 0.00 | 0.18 | 0.18 | 36 | 1010.2 |
| 20260507214003 | 20 | 251 | 0.0 | 4.8 | 0.00 | 0.18 | 0.18 | 37 | 1010.2 |
| 20260507213503 | 20 | 255 | 1.6 | 9.7 | 0.00 | 0.18 | 0.18 | 39 | 1010.3 |
| 20260507213003 | 20 | 252 | 3.2 | 12.9 | 0.00 | 0.18 | 0.18 | 39 | 1010.3 |
| 20260507212503 | 19 | 251 | 3.2 | 12.9 | 0.00 | 0.18 | 0.18 | 36 | 1010.4 |
| 20260507212003 | 19 | 249 | 1.6 | 11.3 | 0.00 | 0.18 | 0.18 | 38 | 1010.4 |
| 20260507211503 | 19 | 249 | 3.2 | 11.3 | 0.00 | 0.18 | 0.18 | 36 | 1010.2 |
| 20260507211024 | 19 | 246 | 1.6 | 6.4 | 0.00 | 0.18 | 0.18 | 40 | 1010.1 |
| 20260507210524 | 20 | 231 | 3.2 | 9.7 | 0.00 | 0.18 | 0.18 | 37 | 1010.1 |
| 20260507210003 | 19 | 232 | 6.4 | 17.7 | 0.00 | 0.18 | 0.18 | 38 | 1010.2 |
| 20260507205503 | 18 | 238 | 6.4 | 17.7 | 0.00 | 0.18 | 0.18 | 38 | 1010.2 |
| 20260507205003 | 19 | 246 | 4.8 | 12.9 | 0.00 | 0.18 | 0.18 | 37 | 1010.0 |
| 20260507204503 | 20 | 250 | 3.2 | 12.9 | 0.00 | 0.18 | 0.18 | 37 | 1009.9 |
| 20260507204024 | 20 | 246 | 4.8 | 14.5 | 0.00 | 0.18 | 0.18 | 36 | 1010.0 |
| 20260507203503 | 18 | 246 | 3.2 | 14.5 | 0.00 | 0.18 | 0.18 | 39 | 1010.0 |
| 20260507203003 | 19 | 248 | 3.2 | 11.3 | 0.00 | 0.18 | 0.18 | 39 | 1010.0 |
| 20260507202503 | 20 | 246 | 3.2 | 11.3 | 0.00 | 0.18 | 0.18 | 38 | 1009.8 |
| 20260507202003 | 19 | 247 | 4.8 | 14.5 | 0.00 | 0.18 | 0.18 | 37 | 1009.9 |
| 20260507201524 | 19 | 247 | 4.8 | 16.1 | 0.00 | 0.18 | 0.18 | 39 | 1010.0 |
| 20260507201003 | 19 | 250 | 4.8 | 16.1 | 0.00 | 0.18 | 0.18 | 39 | 1010.0 |
| 20260507200503 | 19 | 251 | 3.2 | 11.3 | 0.00 | 0.18 | 0.18 | 39 | 1010.1 |
| 20260507200003 | 18 | 247 | 1.6 | 12.9 | 0.00 | 0.18 | 0.18 | 42 | 1010.2 |
| 20260507195503 | 19 | 240 | 1.6 | 12.9 | 0.00 | 0.18 | 0.18 | 40 | 1010.2 |
| 20260507195003 | 18 | 226 | 1.6 | 6.4 | 0.00 | 0.18 | 0.18 | 39 | 1010.2 |
| 20260507194503 | 18 | 229 | 1.6 | 6.4 | 0.00 | 0.18 | 0.18 | 49 | 1010.2 |
| 20260507194003 | 18 | 276 | 1.6 | 4.8 | 0.00 | 0.18 | 0.18 | 42 | 1010.2 |
| 20260507193503 | 17 | 263 | 1.6 | 12.9 | 0.00 | 0.18 | 0.18 | 49 | 1010.6 |
| 20260507193003 | 18 | 244 | 3.2 | 12.9 | 0.00 | 0.18 | 0.18 | 48 | 1010.6 |
| 20260507192503 | 19 | 249 | 3.2 | 6.4 | 0.00 | 0.18 | 0.18 | 42 | 1010.5 |
| 20260507192024 | 19 | 252 | 3.2 | 6.4 | 0.00 | 0.18 | 0.18 | 41 | 1010.5 |
| 20260507191524 | 19 | 253 | 1.6 | 6.4 | 0.00 | 0.18 | 0.18 | 44 | 1010.8 |
| 20260507191024 | 18 | 261 | 0.0 | 3.2 | 0.00 | 0.18 | 0.18 | 44 | 1010.7 |
| 20260507190503 | 18 | 260 | 1.6 | 6.4 | 0.00 | 0.18 | 0.18 | 49 | 1010.9 |
| 20260507190004 | 18 | 264 | 1.6 | 6.4 | 0.00 | 0.18 | 0.18 | 43 | 1010.9 |
| 20260507185503 | 18 | 257 | 1.6 | 6.4 | 0.00 | 0.18 | 0.18 | 47 | 1011.1 |
| 20260507185003 | 19 | 250 | 3.2 | 12.9 | 0.00 | 0.18 | 0.18 | 47 | 1010.9 |
| 20260507184503 | 18 | 248 | 4.8 | 12.9 | 0.00 | 0.18 | 0.18 | 44 | 1011.1 |
| 20260507184003 | 19 | 244 | 3.2 | 9.7 | 0.00 | 0.18 | 0.18 | 43 | 1011.2 |
| 20260507183503 | 18 | 255 | 1.6 | 6.4 | 0.00 | 0.18 | 0.18 | 43 | 1011.5 |
| 20260507183003 | 18 | 246 | 1.6 | 6.4 | 0.00 | 0.18 | 0.18 | 42 | 1011.4 |
| 20260507182503 | 18 | 235 | 3.2 | 11.3 | 0.00 | 0.18 | 0.18 | 46 | 1011.3 |
| 20260507182003 | 18 | 244 | 3.2 | 11.3 | 0.00 | 0.18 | 0.18 | 44 | 1011.3 |
| 20260507181524 | 17 | 242 | 3.2 | 12.9 | 0.00 | 0.18 | 0.18 | 44 | 1011.1 |
| 20260507181024 | 18 | 251 | 3.2 | 12.9 | 0.00 | 0.18 | 0.18 | 45 | 1011.3 |
| 20260507180503 | 18 | 256 | 1.6 | 12.9 | 0.00 | 0.18 | 0.18 | 48 | 1011.1 |
| 20260507180024 | 17 | 283 | 1.6 | 12.9 | 0.00 | 0.18 | 0.18 | 47 | 1011.4 |
| 20260507175503 | 16 | 37 | 1.6 | 4.8 | 0.00 | 0.18 | 0.18 | 54 | 1011.6 |
| 20260507175003 | 16 | 68 | 1.6 | 6.4 | 0.00 | 0.18 | 0.18 | 50 | 1011.5 |
| 20260507174503 | 17 | 94 | 1.6 | 6.4 | 0.00 | 0.18 | 0.18 | 47 | 1011.6 |
| 20260507174003 | 17 | 278 | 1.6 | 3.2 | 0.00 | 0.18 | 0.18 | 49 | 1012.0 |
| 20260507173503 | 17 | 206 | 1.6 | 11.3 | 0.00 | 0.18 | 0.18 | 49 | 1011.9 |
| 20260507173003 | 17 | 224 | 3.2 | 11.3 | 0.00 | 0.18 | 0.18 | 45 | 1011.9 |
| 20260507172503 | 18 | 269 | 1.6 | 6.4 | 0.00 | 0.18 | 0.18 | 49 | 1011.9 |
| 20260507172003 | 18 | 257 | 0.0 | 1.6 | 0.00 | 0.18 | 0.18 | 47 | 1012.1 |
| 20260507171503 | 17 | 228 | 1.6 | 6.4 | 0.00 | 0.18 | 0.18 | 50 | 1012.3 |
| 20260507171003 | 17 | 219 | 1.6 | 6.4 | 0.00 | 0.18 | 0.18 | 49 | 1012.5 |
| 20260507170503 | 17 | 357 | 1.6 | 6.4 | 0.00 | 0.18 | 0.18 | 47 | 1012.3 |
| 20260507170003 | 17 | 273 | 1.6 | 4.8 | 0.00 | 0.18 | 0.18 | 48 | 1012.6 |
| 20260507165503 | 17 | 250 | 1.6 | 9.7 | 0.00 | 0.18 | 0.18 | 45 | 1012.5 |
| 20260507165003 | 17 | 253 | 1.6 | 9.7 | 0.00 | 0.18 | 0.18 | 54 | 1012.5 |
| 20260507164503 | 17 | 8 | 1.6 | 9.7 | 0.00 | 0.18 | 0.18 | 50 | 1012.7 |
| 20260507164024 | 16 | 17 | 1.6 | 9.7 | 0.00 | 0.18 | 0.18 | 49 | 1012.9 |
| 20260507163503 | 16 | 248 | 1.6 | 6.4 | 0.00 | 0.18 | 0.18 | 58 | 1012.6 |
| 20260507163003 | 16 | 243 | 1.6 | 6.4 | 0.00 | 0.18 | 0.18 | 54 | 1012.8 |
| 20260507162524 | 15 | 55 | 1.6 | 4.8 | 0.00 | 0.18 | 0.18 | 54 | 1013.0 |
| 20260507162003 | 15 | 25 | 0.0 | 3.2 | 0.00 | 0.18 | 0.18 | 58 | 1013.0 |
| 20260507161913 | 15 | 277 | 1.6 | 3.2 | 0.00 | 0.18 | 0.18 | 57 | 1012.3 |
| 20260507161503 | 15 | 261 | 1.6 | 9.7 | 0.00 | 0.20 | 0.18 | 56 | 1013.1 |
| 20260507161408 | 15 | 277 | 1.6 | 3.2 | 0.00 | 0.18 | 0.18 | 57 | 1012.3 |
| 20260507161003 | 15 | 244 | 1.6 | 9.7 | 0.00 | 0.20 | 0.18 | 56 | 1013.1 |
| 20260507160906 | 15 | 238 | 0.0 | 1.6 | 0.00 | 0.18 | 0.18 | 57 | 1012.4 |
| 20260507160503 | 15 | 242 | 1.6 | 9.7 | 0.00 | 0.23 | 0.18 | 57 | 1013.3 |
| 20260507160401 | 15 | 246 | 0.0 | 8.0 | 0.00 | 0.18 | 0.18 | 57 | 1012.3 |
| 20260507160003 | 14 | 256 | 0.0 | 6.4 | 0.00 | 0.23 | 0.18 | 59 | 1013.3 |
| 20260507155858 | 14 | 242 | 0.0 | 1.6 | 0.00 | 0.18 | 0.18 | 62 | 1012.3 |
| 20260507155503 | 14 | 32 | 0.0 | 4.8 | 0.00 | 0.23 | 0.18 | 63 | 1013.2 |
| 20260507155353 | 13 | 274 | 0.0 | 0.0 | 0.00 | 0.18 | 0.18 | 62 | 1012.6 |
| 20260507155003 | 15 | 344 | 1.6 | 6.4 | 0.00 | 0.23 | 0.18 | 59 | 1013.4 |
| 20260507154850 | 15 | 48 | 1.6 | 4.8 | 0.00 | 0.18 | 0.18 | 60 | 1012.5 |
| 20260507154503 | 15 | 318 | 1.6 | 6.4 | 0.00 | 0.25 | 0.18 | 60 | 1013.5 |
| 20260507154348 | 15 | 251 | 1.6 | 3.2 | 0.00 | 0.18 | 0.18 | 63 | 1012.4 |
| 20260507154003 | 15 | 360 | 0.0 | 3.2 | 0.00 | 0.25 | 0.18 | 65 | 1013.6 |
| 20260507153845 | 15 | 50 | 1.6 | 3.2 | 0.00 | 0.18 | 0.18 | 64 | 1012.6 |
| 20260507153504 | 15 | 49 | 0.0 | 3.2 | 0.00 | 0.28 | 0.18 | 62 | 1013.5 |
| 20260507153341 | 15 | 317 | 0.0 | 3.2 | 0.00 | 0.18 | 0.18 | 64 | 1012.8 |
| 20260507153024 | 14 | 259 | 1.6 | 9.7 | 0.00 | 0.28 | 0.18 | 63 | 1013.5 |
| 20260507152838 | 15 | 77 | 0.0 | 3.2 | 0.00 | 0.18 | 0.18 | 64 | 1012.6 |
| 20260507152503 | 15 | 247 | 1.6 | 9.7 | 0.00 | 0.30 | 0.18 | 60 | 1013.4 |
| 20260507152334 | 15 | 248 | 0.0 | 1.6 | 0.00 | 0.18 | 0.18 | 63 | 1012.9 |
| 20260507152004 | 14 | 258 | 0.0 | 3.2 | 0.00 | 0.30 | 0.18 | 64 | 1013.7 |
| 20260507151830 | 14 | 37 | 1.6 | 3.2 | 0.00 | 0.18 | 0.18 | 65 | 1012.9 |
| 20260507151503 | 14 | 246 | 1.6 | 4.8 | 0.00 | 0.30 | 0.18 | 62 | 1013.8 |
| 20260507151326 | 13 | 199 | 0.0 | 1.6 | 0.00 | 0.18 | 0.18 | 66 | 1013.1 |
| 20260507151003 | 14 | 251 | 1.6 | 4.8 | 0.00 | 0.33 | 0.18 | 67 | 1013.8 |
| 20260507150824 | 13 | 236 | 0.0 | 4.8 | 0.00 | 0.18 | 0.18 | 64 | 1012.8 |
| 20260507150503 | 13 | 354 | 0.0 | 3.2 | 0.00 | 0.33 | 0.18 | 65 | 1014.1 |
| 20260507150320 | 13 | 88 | 3.2 | 3.2 | 0.00 | 0.18 | 0.18 | 65 | 1013.0 |
| 20260507150024 | 13 | 291 | 0.0 | 6.4 | 0.00 | 0.33 | 0.18 | 65 | 1014.2 |
| 20260507145816 | 13 | 282 | 0.0 | 1.6 | 0.00 | 0.18 | 0.18 | 65 | 1013.5 |
| 20260507145503 | 13 | 275 | 1.6 | 6.4 | 0.00 | 0.33 | 0.18 | 65 | 1013.9 |
| 20260507145313 | 13 | 239 | 1.6 | 8.0 | 0.00 | 0.18 | 0.18 | 63 | 1013.0 |
| 20260507145003 | 13 | 274 | 1.6 | 4.8 | 0.00 | 0.33 | 0.18 | 65 | 1014.1 |
| 20260507144810 | 13 | 258 | 0.0 | 4.8 | 0.00 | 0.18 | 0.18 | 67 | 1013.2 |
| 20260507144503 | 13 | 252 | 1.6 | 9.7 | 0.00 | 0.33 | 0.18 | 66 | 1014.2 |
| 20260507144308 | 13 | 275 | 1.6 | 3.2 | 0.00 | 0.18 | 0.18 | 69 | 1013.3 |
| 20260507144003 | 13 | 248 | 1.6 | 9.7 | 0.00 | 0.33 | 0.18 | 67 | 1014.2 |
| 20260507143804 | 13 | 235 | 6.4 | 9.7 | 0.00 | 0.18 | 0.18 | 64 | 1013.3 |
| 20260507143503 | 13 | 251 | 1.6 | 4.8 | 0.00 | 0.33 | 0.18 | 66 | 1014.2 |
| 20260507143301 | 13 | 213 | 1.6 | 1.6 | 0.00 | 0.18 | 0.18 | 67 | 1013.5 |
| 20260507143003 | 13 | 245 | 1.6 | 6.4 | 0.00 | 0.33 | 0.18 | 67 | 1014.1 |
| 20260507142757 | 13 | 263 | 0.0 | 1.6 | 0.00 | 0.18 | 0.18 | 69 | 1013.5 |
| 20260507142503 | 13 | 248 | 1.6 | 9.7 | 0.00 | 0.33 | 0.18 | 71 | 1014.3 |
| 20260507142254 | 13 | 259 | 1.6 | 8.0 | 0.00 | 0.18 | 0.18 | 68 | 1013.4 |
| 20260507142003 | 13 | 251 | 3.2 | 9.7 | 0.00 | 0.33 | 0.18 | 71 | 1014.2 |
| 20260507141750 | 13 | 250 | 4.8 | 9.7 | 0.00 | 0.18 | 0.18 | 68 | 1013.4 |
| 20260507141503 | 13 | 250 | 3.2 | 9.7 | 0.00 | 0.33 | 0.18 | 69 | 1014.2 |
| 20260507141248 | 13 | 247 | 6.4 | 9.7 | 0.00 | 0.18 | 0.18 | 69 | 1013.3 |
| 20260507141003 | 13 | 251 | 1.6 | 9.7 | 0.00 | 0.33 | 0.18 | 69 | 1014.2 |
| 20260507140743 | 13 | 214 | 0.0 | 1.6 | 0.00 | 0.18 | 0.18 | 70 | 1013.5 |
| 20260507140503 | 13 | 246 | 1.6 | 9.7 | 0.00 | 0.33 | 0.18 | 69 | 1014.2 |
| 20260507140241 | 13 | 151 | 1.6 | 1.6 | 0.00 | 0.18 | 0.18 | 71 | 1013.3 |
| 20260507140004 | 13 | 245 | 1.6 | 9.7 | 0.00 | 0.33 | 0.18 | 70 | 1014.4 |
| 20260507135738 | 12 | 278 | 1.6 | 3.2 | 0.00 | 0.18 | 0.18 | 71 | 1013.7 |
| 20260507135503 | 12 | 252 | 1.6 | 6.4 | 0.00 | 0.33 | 0.18 | 72 | 1014.3 |
| 20260507135235 | 12 | 243 | 0.0 | 1.6 | 0.00 | 0.18 | 0.18 | 74 | 1013.5 |
| 20260507135003 | 12 | 247 | 1.6 | 4.8 | 0.00 | 0.33 | 0.18 | 72 | 1014.4 |
| 20260507134731 | 12 | 307 | 0.0 | 1.6 | 0.00 | 0.18 | 0.18 | 75 | 1013.6 |
| 20260507134503 | 12 | 245 | 1.6 | 11.3 | 0.00 | 0.33 | 0.18 | 73 | 1014.7 |
| 20260507134228 | 12 | 225 | 0.0 | 3.2 | 0.00 | 0.18 | 0.18 | 72 | 1013.6 |
| 20260507134003 | 12 | 249 | 3.2 | 11.3 | 0.00 | 0.33 | 0.18 | 72 | 1014.6 |
| 20260507133724 | 12 | 300 | 1.6 | 11.3 | 0.00 | 0.18 | 0.18 | 72 | 1013.7 |
| 20260507133503 | 12 | 248 | 3.2 | 9.7 | 0.00 | 0.33 | 0.18 | 74 | 1014.6 |
| 20260507133221 | 12 | 243 | 4.8 | 8.0 | 0.00 | 0.18 | 0.18 | 76 | 1013.4 |
| 20260507133024 | 12 | 248 | 1.6 | 9.7 | 0.00 | 0.33 | 0.18 | 78 | 1014.8 |
| 20260507132718 | 12 | 233 | 0.0 | 8.0 | 0.00 | 0.18 | 0.18 | 80 | 1013.5 |
| 20260507132503 | 12 | 244 | 1.6 | 6.4 | 0.00 | 0.33 | 0.18 | 81 | 1014.5 |
| 20260507132215 | 12 | 254 | 0.0 | 3.2 | 0.00 | 0.18 | 0.18 | 81 | 1013.5 |
| 20260507132026 | 12 | 242 | 0.0 | 4.8 | 0.00 | 0.33 | 0.18 | 82 | 1014.4 |
| 20260507131712 | 12 | 250 | 0.0 | 1.6 | 0.00 | 0.18 | 0.18 | 82 | 1013.7 |
| 20260507131503 | 12 | 252 | 1.6 | 6.4 | 0.00 | 0.33 | 0.18 | 81 | 1014.3 |
| 20260507131209 | 12 | 253 | 0.0 | 1.6 | 0.00 | 0.18 | 0.18 | 82 | 1013.5 |
| 20260507131024 | 12 | 257 | 3.2 | 6.4 | 0.00 | 0.33 | 0.18 | 81 | 1014.3 |
| 20260507130706 | 11 | 297 | 3.2 | 4.8 | 0.00 | 0.18 | 0.18 | 82 | 1013.5 |
| 20260507130504 | 11 | 259 | 3.2 | 6.4 | 0.00 | 0.33 | 0.18 | 82 | 1014.3 |
| 20260507130203 | 11 | 276 | 4.8 | 8.0 | 0.00 | 0.18 | 0.18 | 83 | 1013.7 |
| 20260507130003 | 11 | 258 | 1.6 | 12.9 | 0.00 | 0.33 | 0.18 | 83 | 1014.6 |
| 20260507125702 | 11 | 277 | 4.8 | 8.0 | 0.00 | 0.18 | 0.18 | 84 | 1013.4 |
| 20260507125503 | 11 | 256 | 1.6 | 12.9 | 0.00 | 0.33 | 0.18 | 85 | 1014.7 |
| 20260507125159 | 11 | 248 | 0.0 | 4.8 | 0.00 | 0.18 | 0.18 | 86 | 1013.6 |
| 20260507125004 | 11 | 249 | 1.6 | 9.7 | 0.00 | 0.33 | 0.18 | 86 | 1014.6 |
| 20260507124655 | 11 | 249 | 6.4 | 9.7 | 0.00 | 0.18 | 0.18 | 86 | 1013.6 |
| 20260507124504 | 11 | 250 | 1.6 | 9.7 | 0.00 | 0.33 | 0.18 | 87 | 1014.5 |
| 20260507124153 | 11 | 247 | 1.6 | 4.8 | 0.00 | 0.18 | 0.18 | 88 | 1013.6 |
| 20260507124025 | 11 | 250 | 3.2 | 9.7 | 0.00 | 0.33 | 0.18 | 88 | 1014.5 |
| 20260507123651 | 11 | 244 | 3.2 | 3.2 | 0.00 | 0.18 | 0.18 | 88 | 1013.6 |
| 20260507123503 | 11 | 249 | 1.6 | 9.7 | 0.00 | 0.33 | 0.18 | 89 | 1014.4 |
| 20260507123143 | 11 | 258 | 1.6 | 3.2 | 0.00 | 0.18 | 0.18 | 89 | 1013.4 |
| 20260507123003 | 11 | 247 | 1.6 | 6.4 | 0.00 | 0.33 | 0.18 | 89 | 1014.3 |
| 20260507122638 | 11 | 243 | 1.6 | 4.8 | 0.00 | 0.18 | 0.18 | 90 | 1013.5 |
| 20260507122504 | 11 | 248 | 1.6 | 6.4 | 0.00 | 0.33 | 0.18 | 90 | 1014.5 |
| 20260507122134 | 11 | 256 | 1.6 | 3.2 | 0.00 | 0.18 | 0.18 | 90 | 1013.5 |
| 20260507122024 | 11 | 253 | 0.0 | 3.2 | 0.00 | 0.33 | 0.18 | 90 | 1014.2 |
| 20260507121630 | 11 | 248 | 0.0 | 0.0 | 0.00 | 0.18 | 0.18 | 90 | 1013.6 |
| 20260507121504 | 11 | 247 | 0.0 | 4.8 | 0.00 | 0.33 | 0.18 | 90 | 1014.2 |
| 20260507121126 | 11 | 251 | 0.0 | 3.2 | 0.00 | 0.18 | 0.18 | 90 | 1013.6 |
| 20260507121003 | 11 | 247 | 1.6 | 4.8 | 0.00 | 0.33 | 0.18 | 90 | 1014.4 |
| 20260507120622 | 11 | 247 | 0.0 | 1.6 | 0.00 | 0.18 | 0.18 | 90 | 1013.3 |
| 20260507120503 | 11 | 250 | 0.0 | 1.6 | 0.00 | 0.33 | 0.18 | 90 | 1014.3 |
| 20260507120118 | 11 | 265 | 0.0 | 0.0 | 0.00 | 0.18 | 0.18 | 90 | 1013.1 |
| 20260507120024 | 11 | 247 | 0.0 | 1.6 | 0.00 | 0.33 | 0.18 | 90 | 1014.0 |
| 20260507115615 | 11 | 251 | 0.0 | 1.6 | 0.00 | 0.18 | 0.18 | 90 | 1013.3 |
| 20260507115503 | 11 | 248 | 0.0 | 3.2 | 0.00 | 0.33 | 0.18 | 90 | 1014.0 |
| 20260507115110 | 11 | 241 | 0.0 | 3.2 | 0.00 | 0.18 | 0.18 | 90 | 1013.3 |
| 20260507115003 | 11 | 252 | 0.0 | 3.2 | 0.00 | 0.33 | 0.18 | 90 | 1014.3 |
| 20260507114606 | 11 | 254 | 0.0 | 0.0 | 0.00 | 0.18 | 0.18 | 90 | 1013.0 |
| 20260507114504 | 11 | 254 | 0.0 | 1.6 | 0.00 | 0.33 | 0.18 | 90 | 1013.9 |
| 20260507114104 | 11 | 252 | 0.0 | 0.0 | 0.00 | 0.18 | 0.18 | 91 | 1013.1 |
| 20260507114003 | 11 | 248 | 0.0 | 3.2 | 0.00 | 0.33 | 0.18 | 91 | 1013.9 |
| 20260507113600 | 11 | 254 | 0.0 | 1.6 | 0.00 | 0.18 | 0.18 | 91 | 1013.4 |
| 20260507113504 | 11 | 247 | 1.6 | 3.2 | 0.00 | 0.33 | 0.18 | 91 | 1014.1 |
| 20260507113058 | 11 | 243 | 1.6 | 3.2 | 0.00 | 0.18 | 0.18 | 91 | 1013.3 |
| 20260507113004 | 11 | 246 | 1.6 | 3.2 | 0.00 | 0.33 | 0.18 | 91 | 1014.1 |
| 20260507112556 | 11 | 248 | 3.2 | 3.2 | 0.00 | 0.18 | 0.18 | 91 | 1013.2 |
| 20260507112503 | 11 | 247 | 1.6 | 3.2 | 0.00 | 0.33 | 0.18 | 91 | 1014.0 |
| 20260507112052 | 11 | 259 | 1.6 | 3.2 | 0.00 | 0.18 | 0.18 | 91 | 1013.1 |
| 20260507112024 | 11 | 247 | 1.6 | 3.2 | 0.00 | 0.33 | 0.18 | 91 | 1014.0 |
| 20260507111549 | 11 | 261 | 0.0 | 3.2 | 0.00 | 0.18 | 0.18 | 91 | 1013.2 |
| 20260507111503 | 11 | 245 | 1.6 | 6.4 | 0.00 | 0.33 | 0.18 | 91 | 1013.9 |
| 20260507111046 | 11 | 237 | 1.6 | 3.2 | 0.00 | 0.18 | 0.18 | 91 | 1013.1 |
| 20260507111003 | 11 | 245 | 1.6 | 6.4 | 0.00 | 0.33 | 0.18 | 91 | 1014.0 |
| 20260507110542 | 11 | 237 | 3.2 | 3.2 | 0.00 | 0.18 | 0.18 | 91 | 1013.1 |
| 20260507110503 | 11 | 242 | 1.6 | 3.2 | 0.00 | 0.33 | 0.18 | 91 | 1013.9 |
| 20260507110039 | 11 | 246 | 1.6 | 3.2 | 0.00 | 0.18 | 0.18 | 91 | 1012.8 |
| 20260507110003 | 11 | 250 | 0.0 | 3.2 | 0.00 | 0.33 | 0.18 | 91 | 1013.9 |
| 20260507105536 | 11 | 255 | 0.0 | 3.2 | 0.00 | 0.18 | 0.18 | 91 | 1013.0 |
| 20260507105524 | 11 | 251 | 0.0 | 3.2 | 0.00 | 0.33 | 0.18 | 91 | 1013.7 |
| 20260507105032 | 11 | 253 | 0.0 | 3.2 | 0.00 | 0.18 | 0.18 | 91 | 1012.8 |
| 20260507105024 | 11 | 249 | 0.0 | 3.2 | 0.00 | 0.33 | 0.18 | 91 | 1013.7 |
| 20260507104530 | 10 | 253 | 0.0 | 0.0 | 0.00 | 0.18 | 0.18 | 91 | 1012.8 |
| 20260507104503 | 10 | 251 | 0.0 | 3.2 | 0.00 | 0.33 | 0.18 | 91 | 1013.7 |
| 20260507104026 | 10 | 241 | 0.0 | 0.0 | 0.00 | 0.18 | 0.18 | 91 | 1012.6 |
| 20260507104003 | 10 | 255 | 0.0 | 1.6 | 0.00 | 0.33 | 0.18 | 91 | 1013.4 |
| 20260507103524 | 10 | 0 | 0.0 | 0.0 | 0.00 | 0.33 | 0.18 | 91 | 1013.5 |
| 20260507103522 | 10 | 253 | 0.0 | 0.0 | 0.00 | 0.18 | 0.18 | 91 | 1012.5 |
| 20260507103019 | 10 | 260 | 0.0 | 0.0 | 0.00 | 0.18 | 0.18 | 91 | 1012.5 |
| 20260507103003 | 10 | 0 | 0.0 | 0.0 | 0.00 | 0.33 | 0.18 | 91 | 1013.3 |
| 20260507102515 | 10 | 251 | 0.0 | 0.0 | 0.00 | 0.18 | 0.18 | 91 | 1012.6 |
| 20260507102503 | 10 | 0 | 0.0 | 0.0 | 0.00 | 0.33 | 0.18 | 91 | 1013.4 |
| 20260507102011 | 10 | 252 | 0.0 | 0.0 | 0.00 | 0.18 | 0.18 | 91 | 1012.5 |
| 20260507102003 | 10 | 0 | 0.0 | 0.0 | 0.00 | 0.33 | 0.18 | 91 | 1013.4 |
| 20260507101524 | 10 | 0 | 0.0 | 0.0 | 0.00 | 0.33 | 0.18 | 91 | 1013.5 |
| 20260507101507 | 10 | 247 | 0.0 | 0.0 | 0.00 | 0.18 | 0.18 | 91 | 1012.5 |
| 20260507101004 | 10 | 253 | 0.0 | 0.0 | 0.00 | 0.18 | 0.18 | 91 | 1012.4 |
| 20260507100503 | 10 | 0 | 0.0 | 0.0 | 0.00 | 0.33 | 0.18 | 91 | 1013.0 |
| 20260507100501 | 10 | 252 | 0.0 | 0.0 | 0.00 | 0.18 | 0.18 | 91 | 1012.2 |
| 20260507100003 | 10 | 0 | 0.0 | 0.0 | 0.00 | 0.33 | 0.18 | 91 | 1013.0 |
| 20260507095959 | 10 | 251 | 0.0 | 0.0 | 0.00 | 0.18 | 0.18 | 91 | 1012.4 |
| 20260507095503 | 10 | 0 | 0.0 | 0.0 | 0.00 | 0.33 | 0.18 | 91 | 1013.2 |
| 20260507095457 | 10 | 247 | 0.0 | 0.0 | 0.00 | 0.18 | 0.18 | 91 | 1012.4 |
| 20260507095024 | 10 | 0 | 0.0 | 0.0 | 0.00 | 0.33 | 0.18 | 91 | 1013.5 |
| 20260507094953 | 10 | 248 | 0.0 | 0.0 | 0.00 | 0.18 | 0.18 | 91 | 1012.5 |
| 20260507094503 | 10 | 0 | 0.0 | 0.0 | 0.00 | 0.33 | 0.18 | 91 | 1013.3 |
| 20260507094449 | 10 | 260 | 0.0 | 0.0 | 0.00 | 0.18 | 0.18 | 91 | 1012.3 |
| 20260507094003 | 10 | 0 | 0.0 | 0.0 | 0.00 | 0.33 | 0.18 | 91 | 1013.3 |
| 20260507093947 | 10 | 245 | 0.0 | 0.0 | 0.00 | 0.18 | 0.18 | 91 | 1012.5 |
| 20260507093503 | 10 | 0 | 0.0 | 0.0 | 0.00 | 0.33 | 0.18 | 90 | 1013.0 |
| 20260507093444 | 10 | 252 | 0.0 | 0.0 | 0.00 | 0.18 | 0.18 | 90 | 1012.1 |
| 20260507093003 | 10 | 0 | 0.0 | 0.0 | 0.00 | 0.33 | 0.18 | 90 | 1012.9 |
| 20260507092943 | 10 | 251 | 0.0 | 0.0 | 0.00 | 0.18 | 0.18 | 90 | 1012.2 |
| 20260507092524 | 10 | 0 | 0.0 | 0.0 | 0.00 | 0.33 | 0.18 | 90 | 1013.0 |
| 20260507092438 | 10 | 266 | 0.0 | 0.0 | 0.00 | 0.18 | 0.18 | 90 | 1011.9 |
| 20260507092003 | 10 | 267 | 0.0 | 1.6 | 0.00 | 0.33 | 0.18 | 90 | 1012.8 |
| 20260507091935 | 10 | 320 | 0.0 | 0.0 | 0.00 | 0.18 | 0.18 | 90 | 1012.3 |
| 20260507091503 | 10 | 286 | 0.0 | 3.2 | 0.00 | 0.33 | 0.18 | 90 | 1013.0 |
| 20260507091432 | 10 | 252 | 0.0 | 0.0 | 0.00 | 0.18 | 0.18 | 90 | 1012.0 |
| 20260507091024 | 10 | 286 | 0.0 | 3.2 | 0.00 | 0.33 | 0.18 | 90 | 1013.0 |
| 20260507090928 | 10 | 272 | 0.0 | 0.0 | 0.00 | 0.18 | 0.18 | 90 | 1012.2 |
| 20260507090503 | 10 | 343 | 0.0 | 1.6 | 0.00 | 0.33 | 0.18 | 90 | 1012.9 |
| 20260507090424 | 10 | 258 | 0.0 | 0.0 | 0.00 | 0.18 | 0.18 | 90 | 1011.8 |
| 20260507090004 | 10 | 327 | 0.0 | 1.6 | 0.00 | 0.33 | 0.18 | 90 | 1012.5 |
| 20260507085921 | 10 | 247 | 0.0 | 0.0 | 0.00 | 0.18 | 0.18 | 90 | 1011.7 |
| 20260507085503 | 10 | 323 | 0.0 | 1.6 | 0.00 | 0.33 | 0.18 | 90 | 1012.6 |
| 20260507085418 | 10 | 322 | 0.0 | 1.6 | 0.00 | 0.18 | 0.18 | 90 | 1011.7 |
| 20260507085003 | 10 | 0 | 0.0 | 0.0 | 0.00 | 0.33 | 0.18 | 90 | 1012.4 |
| 20260507084915 | 10 | 246 | 0.0 | 0.0 | 0.00 | 0.18 | 0.18 | 90 | 1011.6 |
| 20260507084503 | 10 | 0 | 0.0 | 0.0 | 0.00 | 0.33 | 0.18 | 90 | 1012.3 |
| 20260507084411 | 10 | 278 | 0.0 | 0.0 | 0.00 | 0.18 | 0.18 | 90 | 1011.9 |
| 20260507084003 | 10 | 0 | 0.0 | 0.0 | 0.00 | 0.33 | 0.18 | 90 | 1012.5 |
| 20260507083909 | 10 | 268 | 0.0 | 0.0 | 0.00 | 0.18 | 0.18 | 90 | 1011.7 |
| 20260507083503 | 10 | 303 | 0.0 | 3.2 | 0.00 | 0.33 | 0.18 | 90 | 1012.5 |
| 20260507083405 | 10 | 253 | 0.0 | 0.0 | 0.00 | 0.18 | 0.18 | 90 | 1011.8 |
| 20260507083003 | 10 | 286 | 0.0 | 3.2 | 0.00 | 0.33 | 0.18 | 90 | 1012.6 |
| 20260507082901 | 10 | 297 | 0.0 | 3.2 | 0.00 | 0.18 | 0.18 | 90 | 1011.4 |
| 20260507082503 | 10 | 231 | 0.0 | 1.6 | 0.00 | 0.33 | 0.18 | 90 | 1012.5 |
| 20260507082357 | 10 | 251 | 0.0 | 0.0 | 0.00 | 0.18 | 0.18 | 90 | 1011.6 |
| 20260507082003 | 10 | 267 | 0.0 | 1.6 | 0.00 | 0.33 | 0.18 | 90 | 1012.4 |
| 20260507081854 | 10 | 259 | 0.0 | 0.0 | 0.00 | 0.18 | 0.18 | 90 | 1011.6 |
| 20260507081503 | 10 | 254 | 0.0 | 1.6 | 0.00 | 0.33 | 0.18 | 90 | 1012.5 |
| 20260507081350 | 10 | 257 | 0.0 | 0.0 | 0.00 | 0.18 | 0.18 | 90 | 1011.6 |
| 20260507081003 | 10 | 251 | 0.0 | 1.6 | 0.00 | 0.33 | 0.18 | 90 | 1012.5 |
| 20260507080847 | 10 | 253 | 0.0 | 0.0 | 0.00 | 0.18 | 0.18 | 90 | 1011.7 |
| 20260507080524 | 10 | 254 | 0.0 | 1.6 | 0.00 | 0.33 | 0.18 | 90 | 1012.4 |
| 20260507080343 | 10 | 260 | 0.0 | 0.0 | 0.00 | 0.18 | 0.18 | 89 | 1011.7 |
| 20260507080004 | 10 | 262 | 0.0 | 1.6 | 0.00 | 0.33 | 0.18 | 89 | 1012.4 |
| 20260507075839 | 10 | 285 | 0.0 | 1.6 | 0.00 | 0.18 | 0.18 | 89 | 1011.7 |
| 20260507075503 | 10 | 219 | 0.0 | 3.2 | 0.00 | 0.33 | 0.18 | 89 | 1012.4 |
| 20260507075335 | 10 | 295 | 0.0 | 0.0 | 0.00 | 0.18 | 0.18 | 90 | 1011.6 |
| 20260507075003 | 10 | 211 | 0.0 | 3.2 | 0.00 | 0.33 | 0.18 | 90 | 1012.5 |
| 20260507074831 | 10 | 252 | 0.0 | 3.2 | 0.00 | 0.18 | 0.18 | 90 | 1011.8 |
| 20260507074503 | 10 | 255 | 0.0 | 3.2 | 0.00 | 0.33 | 0.18 | 90 | 1012.9 |
| 20260507074329 | 10 | 248 | 0.0 | 0.0 | 0.00 | 0.18 | 0.18 | 90 | 1011.9 |
| 20260507074024 | 10 | 311 | 0.0 | 6.4 | 0.00 | 0.33 | 0.18 | 90 | 1012.5 |
| 20260507073826 | 10 | 221 | 0.0 | 1.6 | 0.00 | 0.18 | 0.18 | 90 | 1011.6 |
| 20260507073503 | 10 | 333 | 0.0 | 6.4 | 0.00 | 0.33 | 0.18 | 90 | 1012.6 |
| 20260507073323 | 10 | 311 | 0.0 | 1.6 | 0.00 | 0.18 | 0.18 | 90 | 1011.4 |
| 20260507073003 | 10 | 264 | 0.0 | 3.2 | 0.00 | 0.33 | 0.18 | 91 | 1012.5 |
| 20260507072820 | 10 | 260 | 0.0 | 0.0 | 0.00 | 0.18 | 0.18 | 91 | 1012.0 |
| 20260507072503 | 10 | 249 | 0.0 | 4.8 | 0.00 | 0.33 | 0.18 | 91 | 1013.0 |
| 20260507072317 | 10 | 238 | 0.0 | 3.2 | 0.00 | 0.18 | 0.18 | 91 | 1011.9 |
| 20260507072003 | 11 | 247 | 1.6 | 9.7 | 0.00 | 0.33 | 0.18 | 91 | 1012.5 |
| 20260507071815 | 11 | 269 | 0.0 | 4.8 | 0.00 | 0.18 | 0.18 | 91 | 1011.8 |
| 20260507071503 | 11 | 262 | 0.0 | 9.7 | 0.00 | 0.33 | 0.18 | 91 | 1012.6 |
| 20260507071311 | 11 | 264 | 0.0 | 4.8 | 0.00 | 0.18 | 0.18 | 91 | 1011.7 |
| 20260507071003 | 11 | 257 | 0.0 | 3.2 | 0.00 | 0.33 | 0.18 | 91 | 1012.9 |
| 20260507070808 | 11 | 253 | 0.0 | 1.6 | 0.00 | 0.18 | 0.18 | 91 | 1012.0 |
| 20260507070503 | 11 | 250 | 0.0 | 3.2 | 0.00 | 0.33 | 0.18 | 91 | 1012.8 |
| 20260507070305 | 11 | 251 | 0.0 | 0.0 | 0.00 | 0.18 | 0.18 | 92 | 1012.2 |
| 20260507070006 | 11 | 34 | 0.0 | 1.6 | 0.03 | 0.33 | 0.18 | 92 | 1012.8 |
| 20260507065802 | 11 | 258 | 0.0 | 0.0 | 0.00 | 0.18 | 0.18 | 91 | 1011.8 |
| 20260507065524 | 11 | 325 | 0.0 | 1.6 | 0.03 | 0.33 | 0.18 | 92 | 1012.8 |
| 20260507065258 | 11 | 263 | 0.0 | 0.0 | 0.00 | 0.18 | 0.18 | 91 | 1012.1 |
| 20260507065003 | 11 | 281 | 0.0 | 1.6 | 0.03 | 0.33 | 0.18 | 91 | 1013.2 |
| 20260507064756 | 11 | 321 | 0.0 | 1.6 | 0.00 | 0.18 | 0.18 | 91 | 1012.2 |
| 20260507064503 | 12 | 255 | 1.6 | 4.8 | 0.03 | 0.33 | 0.18 | 91 | 1012.8 |
| 20260507064255 | 11 | 255 | 0.0 | 0.0 | 0.00 | 0.18 | 0.18 | 91 | 1012.2 |
| 20260507064003 | 11 | 254 | 1.6 | 4.8 | 0.03 | 0.33 | 0.18 | 91 | 1013.1 |
| 20260507063752 | 11 | 252 | 0.0 | 4.8 | 0.00 | 0.18 | 0.18 | 91 | 1012.2 |
| 20260507063503 | 12 | 248 | 0.0 | 3.2 | 0.03 | 0.33 | 0.18 | 91 | 1012.5 |
| 20260507063248 | 12 | 248 | 0.0 | 3.2 | 0.00 | 0.18 | 0.18 | 91 | 1011.8 |
| 20260507063003 | 11 | 253 | 0.0 | 1.6 | 0.05 | 0.33 | 0.18 | 91 | 1012.9 |
| 20260507062745 | 12 | 260 | 0.0 | 0.0 | 0.00 | 0.18 | 0.18 | 91 | 1011.7 |
| 20260507062503 | 12 | 253 | 0.0 | 1.6 | 0.05 | 0.33 | 0.18 | 91 | 1012.5 |
| 20260507062242 | 12 | 257 | 0.0 | 1.6 | 0.00 | 0.18 | 0.18 | 91 | 1011.5 |
| 20260507062003 | 12 | 246 | 0.0 | 3.2 | 0.18 | 0.33 | 0.18 | 91 | 1012.4 |
| 20260507061741 | 12 | 243 | 0.0 | 0.0 | 0.00 | 0.18 | 0.18 | 91 | 1011.3 |
| 20260507061503 | 12 | 250 | 1.6 | 6.4 | 0.18 | 0.33 | 0.18 | 91 | 1012.2 |
| 20260507061238 | 12 | 248 | 1.6 | 3.2 | 0.00 | 0.18 | 0.18 | 91 | 1011.5 |
| 20260507061024 | 12 | 257 | 1.6 | 9.7 | 0.18 | 0.33 | 0.18 | 91 | 1012.4 |
| 20260507060736 | 12 | 253 | 1.6 | 8.0 | 0.13 | 0.18 | 0.18 | 91 | 1011.8 |
| 20260507060503 | 12 | 259 | 1.6 | 9.7 | 0.18 | 0.33 | 0.18 | 91 | 1012.6 |
| 20260507060232 | 12 | 249 | 4.8 | 8.0 | 0.13 | 0.18 | 0.18 | 91 | 1011.7 |
| 20260507060003 | 12 | 252 | 1.6 | 6.4 | 0.15 | 0.30 | 0.15 | 91 | 1012.4 |
| 20260507055729 | 13 | 271 | 0.0 | 4.8 | 0.00 | 0.15 | 0.15 | 91 | 1011.6 |
| 20260507055503 | 13 | 258 | 1.6 | 4.8 | 0.15 | 0.30 | 0.15 | 91 | 1012.3 |
| 20260507055224 | 13 | 224 | 0.0 | 3.2 | 0.00 | 0.15 | 0.15 | 91 | 1012.2 |
| 20260507055003 | 13 | 259 | 1.6 | 6.4 | 0.15 | 0.30 | 0.15 | 91 | 1012.9 |
| 20260507054720 | 13 | 250 | 0.0 | 4.8 | 0.00 | 0.15 | 0.15 | 91 | 1012.0 |
| 20260507054503 | 13 | 259 | 0.0 | 6.4 | 0.15 | 0.30 | 0.15 | 91 | 1012.6 |
| 20260507054218 | 13 | 258 | 0.0 | 0.0 | 0.18 | 0.15 | 0.15 | 91 | 1011.6 |
| 20260507054003 | 13 | 264 | 0.0 | 3.2 | 0.15 | 0.30 | 0.15 | 90 | 1012.3 |
| 20260507053715 | 13 | 287 | 0.0 | 0.0 | 0.18 | 0.15 | 0.15 | 90 | 1011.1 |
| 20260507053503 | 13 | 263 | 0.0 | 6.4 | 0.15 | 0.30 | 0.15 | 90 | 1012.5 |
| 20260507053213 | 14 | 276 | 0.0 | 3.2 | 0.13 | 0.13 | 0.13 | 90 | 1011.3 |
| 20260507053024 | 14 | 276 | 1.6 | 6.4 | 0.13 | 0.28 | 0.13 | 89 | 1012.3 |
| 20260507052712 | 15 | 251 | 0.0 | 8.0 | 0.71 | 0.13 | 0.13 | 88 | 1011.8 |
| 20260507052503 | 15 | 265 | 3.2 | 9.7 | 0.13 | 0.28 | 0.13 | 88 | 1012.6 |
| 20260507052207 | 15 | 45 | 1.6 | 4.8 | 0.43 | 0.08 | 0.08 | 86 | 1010.9 |
| 20260507052003 | 15 | 260 | 1.6 | 9.7 | 0.00 | 0.15 | 0.00 | 85 | 1013.0 |
| 20260507051705 | 15 | 259 | 6.4 | 9.7 | 0.00 | 0.00 | 0.00 | 85 | 1011.7 |
| 20260507051504 | 15 | 228 | 0.0 | 6.4 | 0.00 | 0.15 | 0.00 | 85 | 1011.6 |
| 20260507051202 | 15 | 282 | 0.0 | 3.2 | 0.00 | 0.00 | 0.00 | 84 | 1010.6 |
| 20260507051003 | 15 | 235 | 0.0 | 6.4 | 0.00 | 0.15 | 0.00 | 84 | 1011.5 |
| 20260507050659 | 15 | 257 | 0.0 | 0.0 | 0.00 | 0.00 | 0.00 | 84 | 1011.0 |
| 20260507050503 | 15 | 255 | 0.0 | 3.2 | 0.00 | 0.15 | 0.00 | 83 | 1011.7 |
| 20260507050156 | 15 | 256 | 0.0 | 0.0 | 0.00 | 0.00 | 0.00 | 83 | 1011.1 |
| 20260507050003 | 15 | 252 | 0.0 | 4.8 | 0.00 | 0.15 | 0.00 | 83 | 1011.5 |
| 20260507045653 | 15 | 247 | 0.0 | 1.6 | 0.00 | 0.00 | 0.00 | 82 | 1011.2 |
| 20260507045503 | 15 | 249 | 1.6 | 4.8 | 0.00 | 0.15 | 0.00 | 82 | 1011.7 |
| 20260507045149 | 15 | 255 | 1.6 | 4.8 | 0.00 | 0.00 | 0.00 | 82 | 1010.9 |
| 20260507045003 | 15 | 249 | 1.6 | 4.8 | 0.00 | 0.15 | 0.00 | 82 | 1011.4 |
| 20260507044646 | 15 | 254 | 1.6 | 3.2 | 0.00 | 0.00 | 0.00 | 83 | 1010.8 |
| 20260507044503 | 15 | 257 | 1.6 | 6.4 | 0.00 | 0.15 | 0.00 | 83 | 1011.9 |
| 20260507044142 | 15 | 252 | 0.0 | 3.2 | 0.00 | 0.00 | 0.00 | 84 | 1010.8 |
| 20260507044003 | 15 | 256 | 1.6 | 6.4 | 0.00 | 0.15 | 0.00 | 84 | 1011.6 |
| 20260507043638 | 16 | 125 | 0.0 | 1.6 | 0.00 | 0.00 | 0.00 | 86 | 1010.7 |
| 20260507043524 | 16 | 204 | 0.0 | 4.8 | 0.00 | 0.15 | 0.00 | 86 | 1011.3 |
| 20260507043136 | 16 | 257 | 0.0 | 4.8 | 0.00 | 0.00 | 0.00 | 86 | 1010.4 |
| 20260507043003 | 16 | 236 | 1.6 | 9.7 | 0.00 | 0.15 | 0.00 | 86 | 1011.1 |
| 20260507042632 | 16 | 253 | 0.0 | 1.6 | 0.00 | 0.00 | 0.00 | 85 | 1010.3 |
| 20260507042524 | 16 | 242 | 1.6 | 9.7 | 0.00 | 0.15 | 0.00 | 85 | 1011.0 |
| 20260507042127 | 16 | 273 | 0.0 | 3.2 | 0.00 | 0.00 | 0.00 | 85 | 1010.6 |
| 20260507042024 | 16 | 252 | 1.6 | 4.8 | 0.00 | 0.15 | 0.00 | 85 | 1011.2 |
| 20260507041624 | 16 | 226 | 0.0 | 1.6 | 0.00 | 0.00 | 0.00 | 85 | 1010.4 |
| 20260507041503 | 16 | 257 | 1.6 | 6.4 | 0.00 | 0.15 | 0.00 | 85 | 1011.2 |
| 20260507041121 | 16 | 254 | 1.6 | 4.8 | 0.00 | 0.00 | 0.00 | 84 | 1010.6 |
| 20260507041003 | 16 | 254 | 3.2 | 9.7 | 0.00 | 0.15 | 0.00 | 84 | 1011.2 |
| 20260507040618 | 16 | 241 | 3.2 | 8.0 | 0.00 | 0.00 | 0.00 | 84 | 1010.2 |
| 20260507040503 | 16 | 255 | 3.2 | 9.7 | 0.00 | 0.15 | 0.00 | 84 | 1011.1 |
| 20260507040114 | 16 | 255 | 1.6 | 8.0 | 0.00 | 0.00 | 0.00 | 84 | 1010.1 |
| 20260507040004 | 16 | 257 | 3.2 | 9.7 | 0.00 | 0.15 | 0.00 | 84 | 1011.0 |
| 20260507035610 | 16 | 255 | 1.6 | 4.8 | 0.00 | 0.15 | 0.15 | 84 | 1010.3 |
| 20260507035503 | 16 | 255 | 3.2 | 9.7 | 0.00 | 0.15 | 0.15 | 84 | 1011.0 |
| 20260507035107 | 17 | 256 | 1.6 | 3.2 | 0.00 | 0.15 | 0.15 | 83 | 1010.4 |
| 20260507035003 | 17 | 252 | 3.2 | 6.4 | 0.00 | 0.15 | 0.15 | 83 | 1011.3 |
| 20260507034604 | 17 | 242 | 1.6 | 3.2 | 0.00 | 0.15 | 0.15 | 83 | 1010.4 |
| 20260507034503 | 17 | 255 | 3.2 | 6.4 | 0.00 | 0.15 | 0.15 | 83 | 1011.1 |
| 20260507034102 | 17 | 247 | 3.2 | 8.0 | 0.00 | 0.15 | 0.15 | 82 | 1010.4 |
| 20260507034003 | 17 | 254 | 3.2 | 6.4 | 0.00 | 0.15 | 0.15 | 82 | 1011.2 |
| 20260507033559 | 17 | 265 | 4.8 | 8.0 | 0.00 | 0.15 | 0.15 | 81 | 1010.2 |
| 20260507033503 | 17 | 251 | 1.6 | 9.7 | 0.00 | 0.15 | 0.15 | 81 | 1011.1 |
| 20260507033056 | 17 | 269 | 1.6 | 9.7 | 0.00 | 0.15 | 0.15 | 81 | 1010.4 |
| 20260507033003 | 17 | 249 | 1.6 | 11.3 | 0.00 | 0.15 | 0.15 | 81 | 1011.4 |
| 20260507032553 | 17 | 262 | 1.6 | 4.8 | 0.00 | 0.15 | 0.15 | 81 | 1010.6 |
| 20260507032503 | 17 | 251 | 1.6 | 11.3 | 0.00 | 0.15 | 0.15 | 81 | 1011.3 |
| 20260507032049 | 17 | 267 | 0.0 | 0.0 | 0.00 | 0.15 | 0.15 | 81 | 1010.5 |
| 20260507032003 | 17 | 266 | 3.2 | 11.3 | 0.00 | 0.15 | 0.15 | 81 | 1011.4 |
| 20260507031546 | 17 | 258 | 6.4 | 8.0 | 0.00 | 0.15 | 0.15 | 80 | 1010.3 |
| 20260507031524 | 17 | 261 | 3.2 | 11.3 | 0.00 | 0.15 | 0.15 | 80 | 1011.4 |
| 20260507031043 | 17 | 282 | 6.4 | 11.3 | 0.00 | 0.15 | 0.15 | 80 | 1010.6 |
| 20260507031003 | 17 | 253 | 3.2 | 11.3 | 0.00 | 0.15 | 0.15 | 80 | 1011.1 |
| 20260507030539 | 17 | 232 | 1.6 | 8.0 | 0.00 | 0.15 | 0.15 | 80 | 1009.9 |
| 20260507030503 | 17 | 255 | 3.2 | 11.3 | 0.00 | 0.15 | 0.15 | 80 | 1010.8 |
| 20260507030037 | 17 | 251 | 4.8 | 4.8 | 0.00 | 0.15 | 0.15 | 80 | 1010.1 |
| 20260507030003 | 17 | 257 | 3.2 | 17.7 | 0.00 | 0.15 | 0.15 | 80 | 1010.7 |
| 20260507025534 | 17 | 248 | 1.6 | 9.7 | 0.00 | 0.15 | 0.15 | 80 | 1010.1 |
| 20260507025503 | 17 | 252 | 3.2 | 17.7 | 0.00 | 0.15 | 0.15 | 80 | 1010.9 |
| 20260507025032 | 18 | 244 | 1.6 | 4.8 | 0.00 | 0.15 | 0.15 | 83 | 1009.8 |
| 20260507025003 | 18 | 252 | 3.2 | 16.1 | 0.00 | 0.15 | 0.15 | 83 | 1010.8 |
| 20260507024529 | 18 | 262 | 3.2 | 8.0 | 0.00 | 0.15 | 0.15 | 84 | 1010.1 |
| 20260507024502 | 18 | 261 | 1.6 | 12.9 | 0.00 | 0.15 | 0.15 | 84 | 1011.0 |
| 20260507024026 | 18 | 253 | 1.6 | 3.2 | 0.00 | 0.15 | 0.15 | 85 | 1010.5 |
| 20260507024003 | 18 | 251 | 1.6 | 9.7 | 0.00 | 0.15 | 0.15 | 85 | 1011.1 |
| 20260507023521 | 18 | 250 | 1.6 | 9.7 | 0.00 | 0.15 | 0.15 | 85 | 1010.3 |
| 20260507023503 | 18 | 251 | 1.6 | 9.7 | 0.00 | 0.15 | 0.15 | 85 | 1011.3 |
| 20260507023023 | 18 | 245 | 1.6 | 9.7 | 0.00 | 0.15 | 0.15 | 85 | 1010.9 |
| 20260507023020 | 18 | 260 | 0.0 | 1.6 | 0.00 | 0.15 | 0.15 | 85 | 1010.1 |
| 20260507022516 | 18 | 237 | 3.2 | 9.7 | 0.00 | 0.15 | 0.15 | 84 | 1009.8 |
| 20260507022503 | 18 | 244 | 3.2 | 9.7 | 0.00 | 0.15 | 0.15 | 84 | 1010.6 |
| 20260507022011 | 18 | 256 | 1.6 | 8.0 | 0.00 | 0.15 | 0.15 | 84 | 1009.9 |
| 20260507022003 | 18 | 247 | 1.6 | 6.4 | 0.00 | 0.15 | 0.15 | 84 | 1011.1 |
| 20260507021508 | 19 | 250 | 1.6 | 3.2 | 0.00 | 0.15 | 0.15 | 84 | 1010.1 |
| 20260507021503 | 19 | 244 | 1.6 | 4.8 | 0.00 | 0.15 | 0.15 | 84 | 1010.5 |
| 20260507021004 | 19 | 237 | 1.6 | 3.2 | 0.00 | 0.15 | 0.15 | 84 | 1009.7 |
| 20260507020503 | 19 | 240 | 1.6 | 6.4 | 0.00 | 0.15 | 0.15 | 83 | 1010.6 |
| 20260507020003 | 19 | 244 | 1.6 | 9.7 | 0.00 | 0.15 | 0.15 | 83 | 1010.8 |
| 20260507015958 | 19 | 233 | 1.6 | 3.2 | 0.00 | 0.15 | 0.15 | 83 | 1010.1 |
| 20260507015503 | 19 | 244 | 3.2 | 9.7 | 0.00 | 0.15 | 0.15 | 83 | 1011.1 |
| 20260507015457 | 19 | 251 | 0.0 | 9.7 | 0.00 | 0.15 | 0.15 | 83 | 1010.2 |
| 20260507015003 | 19 | 241 | 1.6 | 9.7 | 0.00 | 0.15 | 0.15 | 83 | 1011.1 |
| 20260507014954 | 19 | 255 | 1.6 | 11.3 | 0.00 | 0.15 | 0.15 | 83 | 1010.5 |
| 20260507014503 | 19 | 243 | 1.6 | 4.8 | 0.00 | 0.15 | 0.15 | 83 | 1011.0 |
| 20260507014450 | 19 | 245 | 1.6 | 4.8 | 0.00 | 0.15 | 0.15 | 83 | 1010.3 |
| 20260507014003 | 19 | 249 | 1.6 | 6.4 | 0.00 | 0.15 | 0.15 | 83 | 1011.1 |
| 20260507013946 | 19 | 246 | 1.6 | 3.2 | 0.00 | 0.15 | 0.15 | 83 | 1010.3 |
| 20260507013503 | 19 | 247 | 1.6 | 9.7 | 0.00 | 0.15 | 0.15 | 83 | 1010.9 |
| 20260507013443 | 19 | 245 | 3.2 | 8.0 | 0.00 | 0.15 | 0.15 | 83 | 1010.0 |
| 20260507013003 | 19 | 245 | 3.2 | 9.7 | 0.00 | 0.15 | 0.15 | 83 | 1010.8 |
| 20260507012941 | 19 | 249 | 1.6 | 9.7 | 0.00 | 0.15 | 0.15 | 83 | 1010.1 |
| 20260507012503 | 19 | 250 | 1.6 | 9.7 | 0.00 | 0.15 | 0.15 | 83 | 1010.8 |
| 20260507012438 | 19 | 255 | 4.8 | 9.7 | 0.00 | 0.15 | 0.15 | 83 | 1010.0 |
| 20260507012003 | 19 | 239 | 1.6 | 4.8 | 0.00 | 0.15 | 0.15 | 83 | 1010.9 |
| 20260507011934 | 19 | 250 | 1.6 | 3.2 | 0.00 | 0.15 | 0.15 | 83 | 1010.1 |
| 20260507011524 | 19 | 240 | 1.6 | 9.7 | 0.00 | 0.15 | 0.15 | 83 | 1010.7 |
| 20260507011432 | 19 | 267 | 1.6 | 3.2 | 0.00 | 0.15 | 0.15 | 83 | 1010.1 |
| 20260507011003 | 19 | 251 | 1.6 | 9.7 | 0.00 | 0.15 | 0.15 | 83 | 1010.7 |
| 20260507010931 | 19 | 256 | 0.0 | 9.7 | 0.00 | 0.15 | 0.15 | 83 | 1009.9 |
| 20260507010524 | 19 | 245 | 1.6 | 4.8 | 0.00 | 0.15 | 0.15 | 83 | 1011.0 |
| 20260507010426 | 19 | 259 | 4.8 | 4.8 | 0.00 | 0.15 | 0.15 | 83 | 1009.8 |
| 20260507010003 | 19 | 237 | 1.6 | 4.8 | 0.00 | 0.15 | 0.15 | 83 | 1010.6 |
| 20260507005924 | 19 | 244 | 0.0 | 1.6 | 0.00 | 0.15 | 0.15 | 83 | 1010.0 |
| 20260507005503 | 19 | 237 | 1.6 | 4.8 | 0.00 | 0.15 | 0.15 | 83 | 1010.9 |
| 20260507005421 | 19 | 250 | 0.0 | 4.8 | 0.00 | 0.15 | 0.15 | 83 | 1010.0 |
| 20260507005003 | 19 | 240 | 0.0 | 3.2 | 0.00 | 0.15 | 0.15 | 82 | 1010.7 |
| 20260507004917 | 19 | 222 | 1.6 | 3.2 | 0.00 | 0.15 | 0.15 | 82 | 1010.1 |
| 20260507004524 | 19 | 243 | 0.0 | 3.2 | 0.00 | 0.15 | 0.15 | 82 | 1010.8 |
| 20260507004414 | 19 | 258 | 0.0 | 0.0 | 0.00 | 0.15 | 0.15 | 82 | 1010.2 |
| 20260507004003 | 19 | 234 | 0.0 | 3.2 | 0.00 | 0.15 | 0.15 | 82 | 1010.8 |
| 20260507003911 | 19 | 237 | 0.0 | 0.0 | 0.00 | 0.15 | 0.15 | 82 | 1010.2 |
| 20260507003503 | 19 | 243 | 1.6 | 4.8 | 0.00 | 0.15 | 0.15 | 82 | 1010.8 |
| 20260507003406 | 20 | 217 | 0.0 | 0.0 | 0.00 | 0.15 | 0.15 | 82 | 1010.0 |
| 20260507003003 | 19 | 242 | 1.6 | 4.8 | 0.00 | 0.15 | 0.15 | 82 | 1010.4 |
| 20260507002902 | 20 | 242 | 4.8 | 4.8 | 0.00 | 0.15 | 0.15 | 82 | 1009.8 |
| 20260507002503 | 19 | 241 | 1.6 | 4.8 | 0.00 | 0.15 | 0.15 | 82 | 1010.8 |
| 20260507002358 | 20 | 242 | 0.0 | 3.2 | 0.00 | 0.15 | 0.15 | 81 | 1009.9 |
| 20260507002003 | 19 | 241 | 0.0 | 3.2 | 0.00 | 0.15 | 0.15 | 81 | 1010.6 |
| 20260507001856 | 20 | 249 | 0.0 | 3.2 | 0.00 | 0.15 | 0.15 | 81 | 1009.3 |
| 20260507001503 | 19 | 242 | 0.0 | 3.2 | 0.00 | 0.15 | 0.15 | 81 | 1010.3 |
| 20260507001352 | 20 | 248 | 0.0 | 1.6 | 0.00 | 0.15 | 0.15 | 81 | 1009.4 |
| 20260507001003 | 20 | 243 | 0.0 | 3.2 | 0.00 | 0.15 | 0.15 | 81 | 1010.3 |
| 20260507000849 | 20 | 256 | 1.6 | 3.2 | 0.00 | 0.15 | 0.15 | 81 | 1009.3 |
| 20260507000503 | 20 | 242 | 0.0 | 3.2 | 0.00 | 0.15 | 0.15 | 80 | 1010.2 |
| 20260507000344 | 20 | 231 | 1.6 | 3.2 | 0.00 | 0.15 | 0.15 | 80 | 1009.2 |
| 20260507000003 | 20 | 247 | 0.0 | 3.2 | 0.00 | 0.15 | 0.15 | 80 | 1010.2 |
| 20260506235841 | 20 | 253 | 1.6 | 3.2 | 0.00 | 0.15 | 0.15 | 80 | 1009.3 |
| 20260506235503 | 20 | 250 | 1.6 | 6.4 | 0.00 | 0.15 | 0.15 | 80 | 1010.3 |
| 20260506235338 | 20 | 241 | 0.0 | 3.2 | 0.00 | 0.15 | 0.15 | 80 | 1009.3 |
| 20260506235024 | 20 | 248 | 3.2 | 12.9 | 0.00 | 0.15 | 0.15 | 80 | 1010.1 |
| 20260506234834 | 20 | 258 | 3.2 | 8.0 | 0.00 | 0.15 | 0.15 | 79 | 1009.7 |
| 20260506234503 | 20 | 235 | 3.2 | 12.9 | 0.00 | 0.15 | 0.15 | 79 | 1010.0 |
| 20260506234332 | 20 | 248 | 4.8 | 4.8 | 0.00 | 0.15 | 0.15 | 79 | 1009.2 |
| 20260506234003 | 20 | 235 | 1.6 | 9.7 | 0.00 | 0.15 | 0.15 | 79 | 1009.9 |
| 20260506233829 | 20 | 245 | 1.6 | 4.8 | 0.00 | 0.15 | 0.15 | 79 | 1009.3 |
| 20260506233503 | 20 | 252 | 1.6 | 9.7 | 0.00 | 0.15 | 0.15 | 79 | 1010.2 |
| 20260506233325 | 20 | 250 | 0.0 | 3.2 | 0.00 | 0.15 | 0.15 | 79 | 1009.5 |
| 20260506233003 | 20 | 250 | 1.6 | 9.7 | 0.00 | 0.15 | 0.15 | 79 | 1010.2 |
| 20260506232822 | 20 | 258 | 0.0 | 3.2 | 0.00 | 0.15 | 0.15 | 79 | 1009.4 |
| 20260506232503 | 20 | 252 | 3.2 | 11.3 | 0.00 | 0.15 | 0.15 | 79 | 1009.9 |
| 20260506232317 | 20 | 242 | 1.6 | 3.2 | 0.00 | 0.15 | 0.15 | 79 | 1009.4 |
| 20260506232003 | 20 | 253 | 3.2 | 11.3 | 0.00 | 0.15 | 0.15 | 79 | 1010.3 |
| 20260506231814 | 20 | 235 | 6.4 | 9.7 | 0.00 | 0.15 | 0.15 | 78 | 1009.4 |
| 20260506231503 | 20 | 252 | 3.2 | 11.3 | 0.00 | 0.15 | 0.15 | 78 | 1009.9 |
| 20260506231312 | 20 | 267 | 3.2 | 8.0 | 0.00 | 0.15 | 0.15 | 78 | 1009.5 |
| 20260506231024 | 20 | 248 | 1.6 | 6.4 | 0.00 | 0.15 | 0.15 | 78 | 1009.8 |
| 20260506230809 | 20 | 222 | 3.2 | 8.0 | 0.00 | 0.15 | 0.15 | 78 | 1009.1 |
| 20260506230503 | 20 | 250 | 1.6 | 6.4 | 0.00 | 0.15 | 0.15 | 78 | 1010.1 |
| 20260506230306 | 20 | 261 | 0.0 | 0.0 | 0.00 | 0.15 | 0.15 | 78 | 1009.1 |
| 20260506230003 | 20 | 249 | 3.2 | 6.4 | 0.00 | 0.15 | 0.15 | 78 | 1009.9 |
| 20260506225802 | 20 | 244 | 1.6 | 8.0 | 0.00 | 0.15 | 0.15 | 78 | 1008.9 |